Wind_Speed
23 20 17 19 20 20 16 14 10 10 11 6 12 16 20 29 33 33 32 32 30 27 21 15 7 5 5 3 1 5 1 4 15 17 17 15 24 26 23 24 26 27 31 34 35
26 22 20 21 22 24 19 16 13 10 12 10 7 13 18 24 32 32 32 31 30 25 19 14 8 3 5 1 2 4 3 14 17 18 18 22 22 20 21 22 24 26 29 33 33
30 24 21 21 23 28 23 19 16 13 13 14 10 11 15 20 30 32 31 29 27 22 16 9 8 5 1 1 3 3 17 17 15 17 15 16 14 17 17 19 21 23 24 27 28
31 29 25 23 26 30 28 23 19 17 14 17 17 12 13 18 24 26 25 29 28 21 17 16 11 11 3 1 11 15 19 15 12 13 14 15 14 13 14 15 19 20 23 26 28
33 32 27 27 29 30 31 27 22 21 19 19 20 17 15 16 22 24 22 24 24 24 19 15 14 9 2 8 14 14 15 12 10 9 10 10 9 11 10 11 13 15 17 20 23
35 34 31 31 29 31 34 31 27 23 22 20 23 22 19 20 19 20 26 22 21 22 20 18 14 8 9 11 12 14 13 8 7 9 8 6 3 3 5 8 10 12 14 17 20
35 34 34 34 31 34 33 35 32 28 25 24 24 27 24 22 22 21 24 22 21 18 19 11 13 15 14 11 11 12 8 8 8 8 9 6 6 2 3 9 11 9 15 16 15
36 36 36 37 34 35 34 35 36 34 30 27 26 27 29 26 24 25 24 26 21 15 20 13 14 18 16 14 14 12 13 14 11 9 7 8 8 9 11 15 16 15 20 21 19
34 35 36 39 38 36 38 33 37 38 35 31 28 28 29 31 27 29 26 26 23 24 22 22 14 19 19 16 18 16 16 16 17 18 16 16 14 14 17 18 20 17 17 20 16
36 37 37 39 39 37 37 37 35 40 40 37 34 30 28 31 33 32 30 28 32 30 27 28 25 17 21 20 27 26 19 16 17 18 19 20 20 19 22 23 22 22 18 19 19
36 38 38 40 38 38 39 40 39 38 41 42 40 37 34 31 32 37 37 34 37 36 34 33 31 22 20 23 25 25 23 22 25 25 25 23 25 23 23 27 25 20 23 19 18
29 32 34 34 35 38 39 41 39 37 37 41 44 43 41 38 36 35 40 42 41 40 40 39 37 35 32 29 24 29 27 30 31 28 25 27 27 24 24 24 23 23 25 23 22
24 28 29 29 31 35 36 38 40 38 37 37 40 45 45 46 44 41 40 41 44 44 43 42 43 43 40 38 39 32 31 29 35 36 32 29 25 25 25 25 26 26 26 28 28
19 22 24 26 30 32 33 36 38 40 39 38 38 39 42 45 48 48 47 46 45 46 49 49 47 45 44 44 41 38 38 35 34 31 31 34 34 33 27 31 34 34 30 32 33
14 18 22 25 26 29 31 32 36 38 40 40 41 39 39 42 44 45 47 50 51 48 49 50 52 51 50 48 48 44 40 41 41 44 41 34 35 33 33 33 37 35 32 36 38
7 12 17 21 27 29 31 32 33 34 35 37 41 43 43 42 44 46 48 49 51 53 57 54 55 56 54 53 52 50 49 47 49 42 44 39 46 39 40 36 40 43 42 39 40
5 1 6 11 17 22 28 31 32 35 37 38 40 43 45 47 47 47 48 50 51 52 56 59 59 61 62 60 58 57 55 54 53 55 57 51 44 43 44 48 40 44 51 54 48
6 4 3 4 6 10 15 20 24 29 33 37 42 44 46 48 51 51 51 53 53 53 55 56 59 62 64 65 65 64 61 61 60 61 59 54 52 55 52 50 54 55 53 48 48
6 7 10 12 13 14 14 15 17 19 23 27 32 37 42 46 49 50 53 55 55 54 55 57 59 60 64 67 66 67 66 68 67 66 66 65 63 60 61 62 61 60 61 62 62
10 10 13 15 16 17 19 21 22 25 27 30 30 31 33 37 40 44 48 50 51 53 57 59 60 61 63 64 65 66 66 67 70 70 70 70 70 69 65 66 71 72 72 73 73
15 16 16 19 23 25 27 26 24 28 32 35 37 37 39 41 42 41 38 37 38 39 43 46 50 56 60 62 64 62 63 65 68 68 70 71 70 73 72 70 73 76 78 79 81
12 15 20 24 25 30 32 34 33 35 37 38 38 40 42 45 48 48 45 43 43 43 45 47 46 50 49 52 52 54 55 55 59 63 66 67 62 70 73 76 76 77 77 78 78
16 14 16 18 25 27 32 35 37 39 41 44 49 51 51 50 50 49 48 48 49 51 51 52 52 52 57 57 56 58 59 59 60 60 59 61 58 63 67 67 69 70 69 64 61
19 23 24 28 31 31 34 34 38 42 45 48 52 56 59 60 60 57 57 56 54 55 55 55 55 54 56 59 62 63 65 67 69 68 68 67 66 66 68 71 72 70 70 70 67
31 30 34 40 39 35 36 36 38 44 46 49 50 55 58 60 62 62 62 62 62 61 59 59 58 57 58 61 64 66 67 69 73 74 75 74 74 74 76 78 79 79 78 77 77
39 39 46 49 46 43 39 37 36 39 43 44 47 49 52 56 58 59 59 60 61 61 62 64 59 59 61 63 64 65 66 70 73 74 75 76 79 80 80 80 82 84 85 85 83
45 44 51 53 52 49 45 38 38 36 36 40 41 45 50 56 58 59 63 62 63 61 62 63 63 63 63 63 62 64 68 69 71 75 78 80 79 81 84 85 82 83 84 84 82
Wind_Direction
236 234 231 219 207 202 194 199 185 156 118 93 85 93 106 116 122 124 139 142 141 139 139 130 134 156 175 130 345 314 313 349 115 102 101 96 108 96 87 76 67 58 50 52 52
234 231 226 218 210 202 198 200 195 181 149 141 107 105 124 132 131 131 131 133 136 141 136 123 91 118 68 37 221 299 11 129 113 111 103 101 100 90 84 71 63 54 51 48 49
232 229 223 225 212 203 199 202 203 195 166 157 154 133 131 147 144 146 145 144 144 138 146 139 210 214 111 235 154 131 130 141 132 117 108 111 101 92 74 67 57 53 47 43 45
228 227 224 225 212 204 200 205 205 203 188 169 174 165 150 141 153 162 167 161 162 151 177 174 200 220 358 125 141 136 131 141 138 118 120 119 106 89 75 61 58 49 45 41 41
226 225 224 227 214 206 202 202 205 207 204 182 181 181 173 155 141 166 172 179 166 165 184 196 216 235 225 142 146 145 151 123 138 127 128 123 106 80 63 50 45 39 33 26 25
221 224 223 222 218 210 202 202 205 209 206 196 186 193 189 176 161 155 165 165 170 180 180 198 226 217 182 163 153 155 167 168 159 147 149 159 147 75 34 14 22 19 14 17 21
217 221 223 222 223 212 204 204 205 210 210 208 197 194 201 200 180 177 170 167 180 177 169 171 162 170 183 182 188 186 192 180 199 194 176 167 187 206 307 319 332 346 354 0 5
218 221 224 222 223 216 209 205 206 209 212 212 210 199 203 205 203 191 189 186 180 202 190 183 194 184 187 196 208 212 212 222 236 243 232 245 248 269 287 307 311 325 345 345 349
218 222 223 223 223 222 215 209 210 210 214 217 219 214 207 209 213 212 206 205 220 204 205 205 215 203 208 209 219 227 227 229 237 244 258 266 267 277 287 291 298 311 330 337 348
224 225 223 223 224 225 218 216 213 214 215 219 223 224 223 216 215 219 221 207 222 227 218 219 226 229 220 213 227 231 236 233 239 243 253 261 271 284 293 294 294 295 307 323 325
221 222 222 223 224 226 224 219 218 216 217 217 223 224 224 228 222 220 220 229 232 227 230 233 231 232 231 228 231 234 237 245 245 246 250 252 264 269 277 284 287 289 302 306 312
211 215 218 221 224 228 229 226 223 222 222 224 222 226 228 229 229 227 227 227 232 237 237 235 240 238 236 238 241 231 237 249 250 245 255 251 264 265 271 274 277 285 291 285 282
205 207 213 217 219 230 234 232 230 228 229 228 231 230 231 233 232 234 233 234 238 238 241 238 238 242 246 247 243 242 240 249 245 248 254 249 256 264 273 264 269 275 281 285 288
205 210 214 221 225 232 237 237 235 233 234 234 232 235 237 239 238 237 239 240 239 239 242 241 239 240 242 245 249 251 252 243 244 248 251 252 253 254 262 260 257 266 275 275 281
205 217 220 225 228 236 236 242 244 241 241 241 239 234 237 241 241 241 241 242 243 244 243 243 245 246 246 245 244 248 241 245 243 246 252 255 262 266 257 259 258 264 265 264 274
206 222 228 231 234 235 241 245 246 247 251 256 254 249 245 243 245 243 241 242 243 243 245 243 246 249 247 250 249 249 249 244 243 240 241 255 262 264 265 263 261 263 259 263 274
87 177 252 252 250 248 249 251 252 250 248 250 253 254 252 251 248 247 248 246 244 243 245 245 247 249 249 249 248 248 250 245 243 246 250 242 250 256 255 252 250 253 255 256 258
15 3 342 286 264 260 257 257 259 258 256 255 255 256 257 256 255 252 249 250 250 248 247 247 246 248 252 251 253 251 250 250 249 247 250 248 247 253 248 253 253 250 248 245 247
351 318 306 298 291 284 275 266 263 262 262 259 258 258 256 257 259 260 261 260 256 253 254 254 252 248 251 253 253 254 253 252 251 251 250 251 248 253 251 253 258 256 254 253 254
346 327 316 304 298 293 285 280 272 270 266 263 259 260 260 259 257 258 259 260 261 262 261 259 260 258 256 256 256 256 255 255 255 253 254 254 255 256 254 254 255 259 262 264 265
352 339 320 307 297 291 284 276 270 266 261 260 262 262 262 264 263 259 257 261 261 261 262 264 265 266 265 264 264 265 264 263 262 260 256 255 255 255 255 255 256 258 260 261 263
337 332 327 315 307 298 287 282 276 270 266 262 260 261 261 263 264 265 264 261 260 261 263 262 262 267 266 266 266 266 267 267 268 266 264 261 261 260 260 259 258 258 258 260 262
334 329 318 323 319 305 297 286 274 271 269 264 259 256 255 257 260 265 268 267 266 265 262 263 265 268 273 273 271 271 271 268 268 270 268 266 263 264 264 263 262 261 262 263 261
323 324 317 314 317 304 304 287 279 272 269 266 262 260 257 256 256 258 260 262 262 263 263 263 264 265 268 271 274 274 273 273 272 271 270 270 267 266 267 267 267 266 265 263 263
335 329 328 327 322 313 303 293 279 273 272 270 266 260 259 260 260 262 262 262 264 263 265 263 262 264 268 271 272 271 271 273 275 275 274 273 271 269 267 267 266 265 265 266 266
335 334 333 328 323 319 314 302 295 276 271 268 268 263 261 261 261 260 259 260 261 261 264 266 265 266 268 270 271 271 272 271 269 270 272 274 274 272 269 267 266 266 265 263 262
333 331 332 329 324 322 315 307 299 288 272 268 265 263 261 260 261 262 261 262 262 262 262 264 264 265 268 273 273 272 273 273 271 271 272 273 274 274 273 271 266 266 267 265 264
Height
10962 10966 10970 10972 10974 10978 10980 10983 10986 10989 10991 10991 10991 10991 10990 10990 10989 10989 10990 10992 10996 10999 11002 11003 11005 11006 11007 11008 11008 11010 11012 11012 11011 11013 11013 11012 11012 11012 11011 11010 11008 11007 11005 11001 10998
10959 10963 10967 10969 10972 10976 10979 10983 10986 10989 10993 10993 10994 10993 10994 10994 10996 10996 10997 10998 11000 11002 11005 11006 11007 11009 11009 11009 11009 11010 11013 11012 11013 11014 11015 11015 11015 11014 11014 11013 11011 11011 11008 11006 11003
10954 10959 10964 10967 10970 10974 10978 10981 10986 10989 10993 10994 10995 10995 10996 10997 11000 11000 11001 11003 11003 11006 11007 11008 11010 11010 11010 11010 11010 11011 11014 11016 11016 11015 11018 11018 11019 11018 11017 11016 11014 11013 11011 11009 11008
10949 10955 10960 10964 10967 10971 10976 10980 10984 10988 10992 10995 10995 10996 10997 10999 11002 11003 11003 11005 11005 11007 11009 11010 11010 11010 11011 11010 11012 11013 11016 11018 11019 11019 11020 11022 11021 11020 11020 11018 11017 11016 11015 11014 11012
10944 10950 10956 10959 10964 10968 10973 10977 10982 10986 10989 10993 10995 10996 10998 11000 11002 11004 11005 11006 11007 11009 11011 11012 11012 11013 11013 11014 11013 11016 11018 11019 11020 11021 11022 11024 11023 11022 11021 11020 11019 11018 11017 11015 11013
10939 10945 10951 10955 10960 10965 10969 10974 10980 10984 10987 10991 10994 10996 10998 11000 11003 11004 11006 11007 11008 11008 11010 11012 11013 11015 11016 11018 11018 11018 11018 11021 11022 11022 11023 11025 11024 11024 11023 11023 11021 11019 11018 11016 11014
10934 10940 10946 10950 10955 10961 10966 10971 10976 10981 10984 10988 10991 10995 10997 10999 11003 11004 11004 11006 11009 11009 11012 11012 11012 11014 11017 11018 11020 11020 11021 11022 11023 11024 11023 11025 11026 11024 11024 11023 11022 11022 11021 11018 11016
10930 10935 10941 10946 10950 10956 10962 10967 10972 10978 10981 10984 10988 10992 10995 10997 11000 11002 11004 11007 11007 11008 11010 11010 11013 11014 11016 11017 11018 11020 11022 11021 11022 11022 11022 11022 11024 11024 11025 11024 11023 11021 11019 11019 11018
10925 10931 10936 10941 10945 10951 10958 10963 10968 10973 10977 10981 10985 10989 10992 10995 10998 10999 11002 11003 11004 11006 11007 11008 11010 11013 11014 11015 11016 11018 11020 11020 11021 11021 11019 11021 11021 11021 11020 11021 11022 11021 11019 11017 11017
10921 10926 10931 10936 10941 10946 10952 10957 10962 10967 10972 10977 10980 10985 10989 10991 10994 10996 10999 11001 11001 11002 11006 11008 11009 11010 11011 11014 11015 11016 11016 11017 11018 11018 11019 11018 11018 11018 11018 11017 11018 11019 11018 11016 11015
10916 10922 10927 10932 10937 10940 10944 10949 10956 10962 10967 10971 10974 10978 10983 10986 10989 10990 10994 10996 10996 10998 11001 11003 11006 11008 11010 11011 11011 11012 11012 11013 11014 11015 11016 11017 11015 11016 11016 11015 11016 11016 11016 11013 11012
10912 10918 10924 10929 10933 10934 10939 10945 10951 10957 10961 10965 10969 10971 10975 10979 10983 10985 10987 10990 10991 10993 10995 10998 10999 11002 11005 11007 11007 11009 11009 11009 11009 11010 11012 11012 11012 11012 11013 11012 11013 11012 11011 11012 11011
10911 10916 10921 10925 10929 10931 10936 10941 10946 10951 10956 10960 10963 10967 10969 10972 10975 10979 10981 10983 10984 10986 10989 10991 10993 10994 10997 10999 11001 11003 11005 11006 11005 11005 11006 11007 11008 11008 11009 11009 11008 11007 11007 11006 11007
10911 10915 10919 10923 10926 10929 10932 10935 10939 10944 10949 10954 10957 10961 10962 10964 10967 10971 10972 10974 10977 10979 10980 10982 10986 10986 10989 10991 10993 10997 10999 11000 11001 11001 11001 11001 11001 11003 11004 11004 11003 11003 11003 11003 11000
10912 10915 10918 10921 10924 10926 10928 10932 10935 10938 10942 10945 10949 10954 10955 10956 10960 10962 10964 10965 10968 10970 10971 10972 10974 10976 10979 10983 10987 10988 10992 10991 10992 10995 10996 10996 10995 10996 10997 10997 10999 10998 10997 10996 10995
10912 10914 10916 10918 10921 10922 10924 10928 10931 10934 10937 10939 10941 10943 10946 10949 10950 10953 10954 10956 10959 10962 10958 10964 10965 10964 10969 10971 10977 10979 10982 10984 10985 10986 10987 10992 10987 10992 10988 10988 10990 10991 10989 10988 10989
10912 10914 10915 10917 10919 10921 10923 10924 10925 10927 10930 10932 10932 10932 10934 10936 10939 10941 10943 10944 10948 10950 10948 10954 10954 10952 10955 10959 10962 10966 10970 10974 10976 10976 10975 10986 10983 10983 10981 10979 10981 10976 10979 10980 10980
10914 10915 10916 10917 10917 10918 10919 10919 10920 10920 10922 10923 10922 10923 10925 10925 10924 10927 10930 10931 10935 10939 10939 10940 10942 10940 10940 10943 10947 10951 10955 10959 10960 10963 10965 10972 10976 10970 10972 10968 10966 10967 10968 10967 10967
10914 10915 10915 10916 10916 10916 10916 10916 10916 10915 10914 10913 10914 10913 10914 10914 10914 10915 10915 10918 10923 10927 10927 10927 10926 10932 10929 10929 10935 10937 10941 10941 10945 10949 10952 10954 10962 10961 10958 10955 10950 10949 10951 10952 10954
10913 10913 10912 10911 10911 10911 10911 10911 10911 10909 10907 10906 10906 10905 10904 10903 10903 10904 10906 10907 10909 10911 10909 10911 10910 10913 10915 10916 10920 10921 10926 10928 10927 10936 10938 10941 10946 10946 10945 10943 10938 10935 10932 10934 10935
10913 10912 10910 10908 10906 10905 10904 10904 10904 10901 10899 10898 10896 10896 10894 10892 10892 10895 10897 10897 10899 10900 10898 10898 10899 10895 10900 10901 10904 10909 10910 10910 10910 10916 10918 10922 10928 10925 10928 10927 10925 10922 10919 10918 10918
10912 10910 10907 10904 10902 10899 10897 10895 10895 10893 10891 10891 10888 10886 10884 10881 10879 10880 10883 10887 10887 10887 10886 10886 10888 10883 10887 10886 10891 10892 10892 10892 10891 10892 10896 10902 10912 10903 10903 10904 10906 10904 10905 10901 10903
10909 10906 10903 10899 10895 10891 10887 10884 10882 10881 10878 10876 10874 10872 10870 10869 10868 10869 10871 10873 10873 10872 10874 10875 10876 10877 10871 10873 10878 10877 10877 10877 10876 10876 10879 10880 10889 10883 10880 10883 10883 10884 10888 10884 10884
10904 10901 10896 10892 10887 10882 10876 10871 10867 10865 10864 10860 10857 10854 10855 10855 10855 10857 10856 10857 10859 10858 10859 10860 10863 10866 10865 10862 10860 10861 10859 10857 10856 10858 10859 10863 10867 10867 10864 10861 10861 10865 10865 10866 10867
10895 10892 10887 10881 10876 10871 10865 10859 10854 10849 10847 10844 10841 10838 10836 10837 10839 10841 10844 10843 10843 10843 10844 10845 10850 10851 10850 10849 10848 10846 10844 10843 10838 10836 10835 10838 10840 10843 10842 10840 10838 10839 10843 10845 10846
10885 10881 10877 10870 10864 10857 10851 10845 10839 10834 10830 10828 10824 10823 10821 10821 10821 10821 10823 10825 10825 10829 10830 10828 10835 10836 10834 10834 10832 10832 10829 10825 10821 10817 10816 10814 10812 10814 10815 10816 10814 10814 10817 10820 10823
10875 10871 10865 10857 10850 10843 10836 10831 10824 10819 10816 10812 10810 10808 10805 10804 10805 10807 10808 10808 10810 10813 10814 10814 10816 10817 10817 10816 10817 10817 10811 10807 10803 10799 10796 10793 10792 10790 10787 10785 10790 10790 10791 10794 10797